User: anonymous   Login
Location: Unspecified
(0.0000°N, 0.0000°E)
Time: 06:00:24
(UTC+01:00)
Language:

SeaSat 1 - Orbit

View from above orbital plane
View from above orbital plane
View from above satellite
View from above satellite

Ground track
Ground track

The orbit data is extracted from the following two-line orbital elements,

1 10967U 78064A   14326.72529997  .00000384  00000-0  15471-3 0  4412
2 10967 107.9948 141.8582 0001240 294.9675 195.3987 14.43169825911344
Epoch (UTC): 22 November 2014 17:24:25
Eccentricity: 0.0001240
inclination: 107.9948°
perigee height: 747 km
apogee height: 749 km
right ascension of ascending node: 141.8582°
argument of perigee: 294.9675°
revolutions per day: 14.43169825
mean anomaly at epoch: 195.3987°
orbit number at epoch: 91134

The dashed part of the orbit path shows where the satellite is in the earth's shadow,  

DLR